Time,TemperatureF,DewpointF,PressureIn,WindDirection,WindDirectionDegrees,WindSpeedMPH,WindSpeedGustMPH,Humidity,HourlyPrecipIn,Conditions,Clouds,dailyrainin,SoftwareType,DateUTC
2013-06-23 00:10:00,62.2,61.0,28.45,NNW,333,0.0,1.0,96,0.00,,,0.00,weatherlink.com 1.10,2013-06-23 04:10:00,
2013-06-23 00:25:00,62.0,61.0,28.46,NNW,343,0.0,1.0,96,0.00,,,0.00,weatherlink.com 1.10,2013-06-23 04:25:00,
2013-06-23 00:40:00,61.6,60.0,28.46,NNW,343,0.0,0.0,95,0.00,,,0.00,weatherlink.com 1.10,2013-06-23 04:40:00,
2013-06-23 00:55:00,61.3,60.0,28.46,NNW,340,0.0,1.0,96,0.00,,,0.00,weatherlink.com 1.10,2013-06-23 04:55:00,
2013-06-23 01:10:00,61.3,60.0,28.45,NNW,339,0.0,1.0,96,0.00,,,0.00,weatherlink.com 1.10,2013-06-23 05:10:00,
2013-06-23 01:25:00,61.0,60.0,28.45,NNW,339,0.0,1.0,96,0.00,,,0.00,weatherlink.com 1.10,2013-06-23 05:25:00,
2013-06-23 01:40:00,60.6,60.0,28.45,NNW,338,0.0,0.0,96,0.00,,,0.00,weatherlink.com 1.10,2013-06-23 05:40:00,
2013-06-23 01:55:00,60.5,60.0,28.45,NNW,338,0.0,0.0,97,0.00,,,0.00,weatherlink.com 1.10,2013-06-23 05:55:00,
2013-06-23 02:10:00,60.7,60.0,28.44,NNW,338,0.0,0.0,97,0.00,,,0.00,weatherlink.com 1.10,2013-06-23 06:10:00,
2013-06-23 02:25:00,60.4,60.0,28.44,NNW,339,0.0,0.0,97,0.00,,,0.00,weatherlink.com 1.10,2013-06-23 06:25:00,
2013-06-23 02:40:00,60.1,59.0,28.43,NNW,339,0.0,0.0,97,0.00,,,0.00,weatherlink.com 1.10,2013-06-23 06:40:00,
2013-06-23 02:55:00,60.2,59.0,28.42,NNW,336,0.0,1.0,97,0.00,,,0.00,weatherlink.com 1.10,2013-06-23 06:55:00,
2013-06-23 03:10:00,59.9,59.0,28.42,NNW,336,0.0,0.0,97,0.00,,,0.00,weatherlink.com 1.10,2013-06-23 07:10:00,
2013-06-23 03:25:00,59.1,58.0,28.42,NNW,336,0.0,0.0,97,0.00,,,0.00,weatherlink.com 1.10,2013-06-23 07:25:00,
2013-06-23 03:40:00,59.2,59.0,28.41,WNW,288,0.0,1.0,98,0.00,,,0.00,weatherlink.com 1.10,2013-06-23 07:40:00,
2013-06-23 03:55:00,58.6,58.0,28.41,WNW,288,0.0,0.0,97,0.00,,,0.00,weatherlink.com 1.10,2013-06-23 07:55:00,
2013-06-23 04:10:00,58.2,57.0,28.41,WNW,288,0.0,0.0,97,0.00,,,0.00,weatherlink.com 1.10,2013-06-23 08:10:00,
2013-06-23 04:25:00,58.4,58.0,28.41,WNW,288,0.0,0.0,98,0.00,,,0.00,weatherlink.com 1.10,2013-06-23 08:25:00,
2013-06-23 04:40:00,58.9,58.0,28.42,North,352,0.0,3.0,98,0.00,,,0.00,weatherlink.com 1.10,2013-06-23 08:40:00,
2013-06-23 04:55:00,58.7,58.0,28.42,NNW,330,0.0,0.0,98,0.00,,,0.00,weatherlink.com 1.10,2013-06-23 08:55:00,
2013-06-23 05:10:00,58.4,58.0,28.43,NNW,330,0.0,0.0,98,0.00,,,0.00,weatherlink.com 1.10,2013-06-23 09:10:00,
2013-06-23 05:25:00,57.9,57.0,28.43,NNW,330,0.0,0.0,98,0.00,,,0.00,weatherlink.com 1.10,2013-06-23 09:25:00,
2013-06-23 05:40:00,57.8,57.0,28.43,NNW,330,0.0,0.0,98,0.00,,,0.00,weatherlink.com 1.10,2013-06-23 09:40:00,
2013-06-23 05:55:00,57.3,57.0,28.44,NNW,330,0.0,0.0,98,0.00,,,0.00,weatherlink.com 1.10,2013-06-23 09:55:00,
2013-06-23 06:10:00,57.4,57.0,28.45,NNW,330,0.0,0.0,98,0.00,,,0.00,weatherlink.com 1.10,2013-06-23 10:10:00,
2013-06-23 06:25:00,57.8,57.0,28.45,NNW,330,0.0,0.0,98,0.00,,,0.00,weatherlink.com 1.10,2013-06-23 10:25:00,
2013-06-23 06:40:00,58.4,58.0,28.45,NNW,330,0.0,1.0,98,0.00,,,0.00,weatherlink.com 1.10,2013-06-23 10:40:00,
2013-06-23 06:55:00,59.1,59.0,28.45,NNW,330,0.0,1.0,98,0.00,,,0.00,weatherlink.com 1.10,2013-06-23 10:55:00,
2013-06-23 07:10:00,60.1,60.0,28.45,NNW,330,0.0,0.0,98,0.00,,,0.00,weatherlink.com 1.10,2013-06-23 11:10:00,
2013-06-23 07:25:00,60.6,60.0,28.45,NNW,330,0.0,0.0,98,0.00,,,0.00,weatherlink.com 1.10,2013-06-23 11:25:00,
2013-06-23 07:40:00,61.1,61.0,28.46,NNW,330,0.0,0.0,98,0.00,,,0.00,weatherlink.com 1.10,2013-06-23 11:40:00,
2013-06-23 07:55:00,61.6,61.0,28.46,NNW,330,0.0,1.0,98,0.00,,,0.00,weatherlink.com 1.10,2013-06-23 11:55:00,
2013-06-23 08:11:00,62.6,62.0,28.46,NNW,330,0.0,1.0,97,0.00,,,0.00,weatherlink.com 1.10,2013-06-23 12:11:00,
2013-06-23 08:25:00,63.9,63.0,28.46,NNW,330,0.0,1.0,96,0.00,,,0.00,weatherlink.com 1.10,2013-06-23 12:25:00,
2013-06-23 08:40:00,64.8,63.0,28.46,NNW,330,0.0,0.0,94,0.00,,,0.00,weatherlink.com 1.10,2013-06-23 12:40:00,
2013-06-23 08:55:00,65.1,63.0,28.46,NNW,330,0.0,1.0,93,0.00,,,0.00,weatherlink.com 1.10,2013-06-23 12:55:00,
2013-06-23 09:10:00,65.8,64.0,28.47,NNW,330,0.0,0.0,93,0.00,,,0.00,weatherlink.com 1.10,2013-06-23 13:10:00,
2013-06-23 09:25:00,66.8,65.0,28.47,NNW,330,0.0,1.0,92,0.00,,,0.00,weatherlink.com 1.10,2013-06-23 13:25:00,
2013-06-23 09:40:00,68.4,65.0,28.47,East,99,0.0,1.0,89,0.00,,,0.00,weatherlink.com 1.10,2013-06-23 13:40:00,
2013-06-23 09:56:00,69.9,66.0,28.47,SE,131,0.0,2.0,87,0.00,,,0.00,weatherlink.com 1.10,2013-06-23 13:56:00,
2013-06-23 10:11:00,71.1,67.0,28.46,NNW,332,1.0,2.0,86,0.00,,,0.00,weatherlink.com 1.10,2013-06-23 14:11:00,
2013-06-23 10:26:00,72.1,67.0,28.46,NNW,336,1.0,2.0,85,0.00,,,0.00,weatherlink.com 1.10,2013-06-23 14:26:00,
2013-06-23 10:41:00,73.1,67.0,28.46,NNW,336,0.0,1.0,81,0.00,,,0.00,weatherlink.com 1.10,2013-06-23 14:41:00,
2013-06-23 10:56:00,74.6,67.0,28.46,ENE,73,1.0,1.0,78,0.00,,,0.00,weatherlink.com 1.10,2013-06-23 14:56:00,
2013-06-23 11:11:00,74.9,68.0,28.46,SE,145,0.0,3.0,79,0.00,,,0.00,weatherlink.com 1.10,2013-06-23 15:11:00,
2013-06-23 11:26:00,77.8,70.0,28.46,NNW,346,0.0,2.0,78,0.00,,,0.00,weatherlink.com 1.10,2013-06-23 15:26:00,
2013-06-23 11:41:00,80.7,67.0,28.45,SE,139,0.0,1.0,63,0.00,,,0.00,weatherlink.com 1.10,2013-06-23 15:41:00,
2013-06-23 12:11:00,83.5,70.0,28.44,East,86,2.0,2.0,63,0.00,,,0.00,weatherlink.com 1.10,2013-06-23 16:11:00,
2013-06-23 12:26:00,83.2,68.0,28.45,NW,319,1.0,3.0,60,0.00,,,0.00,weatherlink.com 1.10,2013-06-23 16:26:00,
2013-06-23 12:41:00,82.7,66.0,28.44,ENE,67,1.0,5.0,57,0.00,,,0.00,weatherlink.com 1.10,2013-06-23 16:41:00,
2013-06-23 12:56:00,82.9,66.0,28.44,North,349,1.0,4.0,57,0.00,,,0.00,weatherlink.com 1.10,2013-06-23 16:56:00,
2013-06-23 13:11:00,83.2,65.0,28.43,NW,326,2.0,6.0,54,0.00,,,0.00,weatherlink.com 1.10,2013-06-23 17:11:00,
2013-06-23 13:26:00,83.6,66.0,28.43,NNW,347,2.0,8.0,56,0.00,,,0.00,weatherlink.com 1.10,2013-06-23 17:26:00,
2013-06-23 13:41:00,84.7,64.0,28.42,NNW,329,3.0,4.0,50,0.00,,,0.00,weatherlink.com 1.10,2013-06-23 17:41:00,
2013-06-23 13:56:00,84.6,64.0,28.41,East,101,2.0,5.0,51,0.00,,,0.00,weatherlink.com 1.10,2013-06-23 17:56:00,
2013-06-23 14:11:00,86.0,64.0,28.41,SSW,205,1.0,4.0,48,0.00,,,0.00,weatherlink.com 1.10,2013-06-23 18:11:00,
2013-06-23 14:26:00,85.2,66.0,28.41,NNW,344,0.0,6.0,53,0.00,,,0.00,weatherlink.com 1.10,2013-06-23 18:26:00,
2013-06-23 14:41:00,84.3,62.0,28.40,North,357,0.0,3.0,47,0.00,,,0.00,weatherlink.com 1.10,2013-06-23 18:41:00,
2013-06-23 14:56:00,86.6,62.0,28.39,ESE,121,1.0,3.0,43,0.00,,,0.00,weatherlink.com 1.10,2013-06-23 18:56:00,
2013-06-23 15:11:00,88.4,65.0,28.39,North,349,2.0,3.0,46,0.00,,,0.00,weatherlink.com 1.10,2013-06-23 19:11:00,
2013-06-23 15:26:00,86.2,63.0,28.39,NNW,335,2.0,5.0,46,0.00,,,0.00,weatherlink.com 1.10,2013-06-23 19:26:00,
2013-06-23 15:41:00,86.2,64.0,28.38,SE,145,1.0,3.0,47,0.00,,,0.00,weatherlink.com 1.10,2013-06-23 19:41:00,
2013-06-23 15:56:00,87.2,60.0,28.37,ESE,102,1.0,3.0,40,0.00,,,0.00,weatherlink.com 1.10,2013-06-23 19:56:00,
2013-06-23 16:11:00,88.1,65.0,28.37,NNE,19,0.0,3.0,47,0.00,,,0.00,weatherlink.com 1.10,2013-06-23 20:11:00,
2013-06-23 16:26:00,88.3,62.0,28.37,ESE,111,6.0,6.0,41,0.00,,,0.00,weatherlink.com 1.10,2013-06-23 20:26:00,
2013-06-23 16:41:00,87.9,61.0,28.37,SSE,156,2.0,6.0,40,0.00,,,0.00,weatherlink.com 1.10,2013-06-23 20:41:00,
2013-06-23 16:56:00,87.5,60.0,28.36,SE,134,0.0,1.0,40,0.00,,,0.00,weatherlink.com 1.10,2013-06-23 20:56:00,
2013-06-23 17:12:00,85.6,62.0,28.36,NW,318,0.0,4.0,45,0.00,,,0.00,weatherlink.com 1.10,2013-06-23 21:12:00,
2013-06-23 17:27:00,85.7,64.0,28.35,WNW,294,0.0,3.0,48,0.00,,,0.00,weatherlink.com 1.10,2013-06-23 21:27:00,
2013-06-23 17:41:00,85.8,67.0,28.35,NW,305,0.0,1.0,53,0.00,,,0.00,weatherlink.com 1.10,2013-06-23 21:41:00,
2013-06-23 17:56:00,84.5,68.0,28.35,NNW,328,1.0,2.0,58,0.00,,,0.00,weatherlink.com 1.10,2013-06-23 21:56:00,
2013-06-23 18:11:00,83.8,64.0,28.35,NW,315,0.0,1.0,51,0.00,,,0.00,weatherlink.com 1.10,2013-06-23 22:11:00,
2013-06-23 18:26:00,83.9,65.0,28.35,South,188,0.0,4.0,54,0.00,,,0.00,weatherlink.com 1.10,2013-06-23 22:26:00,
2013-06-23 18:41:00,83.0,66.0,28.35,South,172,4.0,7.0,57,0.00,,,0.00,weatherlink.com 1.10,2013-06-23 22:41:00,
2013-06-23 18:56:00,81.6,67.0,28.36,SE,129,0.0,5.0,62,0.00,,,0.00,weatherlink.com 1.10,2013-06-23 22:56:00,
2013-06-23 19:12:00,80.1,67.0,28.36,SSW,212,0.0,1.0,64,0.00,,,0.00,weatherlink.com 1.10,2013-06-23 23:12:00,
2013-06-23 19:27:00,78.0,69.0,28.36,SW,214,0.0,0.0,73,0.00,,,0.00,weatherlink.com 1.10,2013-06-23 23:27:00,
2013-06-23 19:42:00,75.8,68.0,28.37,SW,236,0.0,0.0,77,0.00,,,0.00,weatherlink.com 1.10,2013-06-23 23:42:00,
2013-06-23 19:57:00,74.9,69.0,28.37,WSW,255,0.0,1.0,83,0.00,,,0.00,weatherlink.com 1.10,2013-06-23 23:57:00,
2013-06-23 20:12:00,74.3,69.0,28.38,WSW,253,0.0,1.0,84,0.00,,,0.00,weatherlink.com 1.10,2013-06-24 00:12:00,
2013-06-23 20:27:00,71.6,63.0,28.40,East,101,5.0,10.0,75,0.03,,,0.03,weatherlink.com 1.10,2013-06-24 00:27:00,
2013-06-23 20:42:00,66.7,62.0,28.43,South,188,0.0,10.0,86,0.43,,,0.43,weatherlink.com 1.10,2013-06-24 00:42:00,
2013-06-23 20:57:00,64.8,62.0,28.41,South,188,0.0,8.0,91,0.92,,,0.92,weatherlink.com 1.10,2013-06-24 00:57:00,
2013-06-23 21:12:00,64.3,62.0,28.43,South,174,0.0,1.0,93,0.92,,,0.92,weatherlink.com 1.10,2013-06-24 01:12:00,
2013-06-23 21:27:00,64.2,63.0,28.43,ENE,60,0.0,1.0,95,0.89,,,0.92,weatherlink.com 1.10,2013-06-24 01:27:00,
2013-06-23 21:42:00,64.1,63.0,28.44,NE,43,0.0,1.0,95,0.44,,,0.92,weatherlink.com 1.10,2013-06-24 01:42:00,
2013-06-23 21:57:00,64.1,63.0,28.43,ESE,115,0.0,0.0,96,0.01,,,0.93,weatherlink.com 1.10,2013-06-24 01:57:00,
2013-06-23 22:12:00,63.9,63.0,28.44,South,177,0.0,3.0,95,0.01,,,0.93,weatherlink.com 1.10,2013-06-24 02:12:00,
2013-06-23 22:27:00,63.6,62.0,28.45,South,173,0.0,2.0,95,0.01,,,0.93,weatherlink.com 1.10,2013-06-24 02:27:00,
2013-06-23 22:42:00,63.4,62.0,28.45,SSW,194,0.0,2.0,95,0.01,,,0.93,weatherlink.com 1.10,2013-06-24 02:42:00,
2013-06-23 22:57:00,63.0,62.0,28.45,SW,236,0.0,1.0,96,0.00,,,0.93,weatherlink.com 1.10,2013-06-24 02:57:00,
2013-06-23 23:12:00,62.8,62.0,28.45,SW,236,0.0,1.0,96,0.00,,,0.93,weatherlink.com 1.10,2013-06-24 03:12:00,
2013-06-23 23:27:00,62.4,61.0,28.45,SW,236,0.0,0.0,96,0.00,,,0.93,weatherlink.com 1.10,2013-06-24 03:27:00,
2013-06-23 23:42:00,62.0,61.0,28.45,SW,236,0.0,0.0,96,0.00,,,0.93,weatherlink.com 1.10,2013-06-24 03:42:00,
2013-06-23 23:57:00,61.7,61.0,28.45,SW,236,0.0,0.0,97,0.00,,,0.93,weatherlink.com 1.10,2013-06-24 03:57:00,